Change the Weather History Date:

Monday, April 7, 2014

  Actual Average Record
Temperature  
Mean Temperature 49 °F 43 °F  
Max Temperature 61 °F 54 °F 88 °F (1991)
Min Temperature 37 °F 32 °F 12 °F (1982)
Degree Days  
Heating Degree Days 16 22  
Month to date heating degree days 196 163  
Since 1 July heating degree days 7852 7078  
Cooling Degree Days 0 0  
Month to date cooling degree days 0 0  
Year to date cooling degree days 0 0  
Moisture  
Dew Point 40 °F    
Average Humidity 74    
Maximum Humidity 100    
Minimum Humidity 47    
Precipitation  
Precipitation 0.04 in 0.10 in 1.42 in (2006)
Month to date precipitation 0.37 0.61  
Sea Level Pressure  
Sea Level Pressure 29.82 in    
Wind  
Wind Speed 11 mph (NNW)    
Max Wind Speed 32 mph    
Max Gust Speed 40 mph    
Visibility 8 miles    
Events Rain    
T = Trace of Precipitation, MM = Missing Value Source: NWS Daily Summary

Daily Weather History Graph

Daily Weather History Graph

Search for Another Location

Airport or City:

Trip Planner

Search our weather history database for the weather conditions in past years. The results will help you decide how hot, cold, wet, or windy it might be!

Date:

Astronomy

Apr. 07, 2014 Rise Set
Actual Time 6:50 AM CDT 7:52 PM CDT
Civil Twilight 6:21 AM CDT 8:21 PM CDT
Nautical Twilight 5:46 AM CDT 8:56 PM CDT
Astronomical Twilight 5:09 AM CDT 9:33 PM CDT
Moon 12:42 PM CDT (4/7) 2:35 AM CDT (4/7)
Length of Visible Light 14h 00m
Length of Day
13h 02m
First Quarter, 53% of the Moon is Illuminated
Apr 7
First Quarter
Apr 15
Full
Apr 22
Last Quarter
Apr 29
New
May 6
First Quarter

Hourly Weather History & Observations

Time (CDT) Temp. Windchill Dew Point Humidity Pressure Visibility Wind Dir Wind Speed Gust Speed Precip Events Conditions
12:52 AM 41.0 °F 38.0 °F 41.0 °F 100% 29.86 in 5.0 mi SE 4.6 mph - N/A   Overcast
1:52 AM 41.0 °F 38.0 °F 41.0 °F 100% 29.85 in 6.0 mi SE 4.6 mph - N/A   Overcast
2:52 AM 39.9 °F 34.5 °F 39.9 °F 100% 29.81 in 5.0 mi SSE 8.1 mph - N/A   Scattered Clouds
3:52 AM 41.0 °F 38.0 °F 41.0 °F 100% 29.79 in 6.0 mi South 4.6 mph - N/A   Overcast
4:52 AM 41.0 °F 35.2 °F 39.9 °F 96% 29.78 in 5.0 mi South 9.2 mph - N/A   Overcast
5:52 AM 41.0 °F 37.1 °F 41.0 °F 100% 29.79 in 5.0 mi SSW 5.8 mph - N/A   Overcast
6:52 AM 37.9 °F 35.5 °F 37.9 °F 100% 29.81 in 4.0 mi SW 3.5 mph - N/A   Mostly Cloudy
7:52 AM 37.0 °F 33.3 °F 37.0 °F 100% 29.82 in 4.0 mi West 4.6 mph - N/A   Partly Cloudy
8:52 AM 45.0 °F - 43.0 °F 93% 29.83 in 7.0 mi Calm Calm - N/A   Overcast
9:52 AM 48.0 °F - 45.0 °F 89% 29.83 in 8.0 mi NNW 8.1 mph - N/A   Mostly Cloudy
10:52 AM 52.0 °F - 46.0 °F 80% 29.82 in 9.0 mi North 10.4 mph - N/A   Scattered Clouds
11:52 AM 57.0 °F - 43.0 °F 59% 29.82 in 10.0 mi North 12.7 mph - N/A   Clear
12:52 PM 59.0 °F - 42.1 °F 53% 29.81 in 10.0 mi North 16.1 mph 21.9 mph N/A   Partly Cloudy
1:52 PM 59.0 °F - 41.0 °F 51% 29.81 in 10.0 mi North 18.4 mph - N/A   Scattered Clouds
2:52 PM 59.0 °F - 39.9 °F 49% 29.79 in 10.0 mi North 17.3 mph - N/A   Partly Cloudy
3:52 PM 54.0 °F - 39.9 °F 59% 29.81 in 10.0 mi North 26.5 mph 38.0 mph N/A   Scattered Clouds
4:52 PM 55.9 °F - 39.0 °F 53% 29.81 in 10.0 mi North 17.3 mph - 0.01 in   Mostly Cloudy
5:07 PM 48.0 °F - 42.1 °F 80% 29.81 in 1.8 mi North 26.5 mph 40.3 mph 0.03 in Rain Rain
5:14 PM 48.9 °F - 39.0 °F 69% 29.80 in 3.0 mi North 12.7 mph 35.7 mph 0.03 in Rain Light Rain
5:52 PM 53.1 °F - 42.1 °F 66% 29.82 in 10.0 mi NNW 10.4 mph - 0.03 in   Mostly Cloudy
6:52 PM 53.1 °F - 39.9 °F 61% 29.82 in 10.0 mi North 17.3 mph - N/A   Clear
7:52 PM 48.0 °F - 37.0 °F 66% 29.84 in 10.0 mi NNW 13.8 mph - N/A   Clear
8:52 PM 45.0 °F 38.2 °F 37.0 °F 74% 29.86 in 10.0 mi NNW 15.0 mph - N/A   Clear
9:52 PM 43.0 °F 36.8 °F 36.0 °F 76% 29.87 in 10.0 mi NW 11.5 mph - N/A   Clear
10:52 PM 39.9 °F 33.4 °F 36.0 °F 86% 29.88 in 10.0 mi NW 10.4 mph - N/A   Clear
11:52 PM 41.0 °F 34.3 °F 36.0 °F 82% 29.88 in 10.0 mi NNW 11.5 mph - N/A   Clear